TimeCST,TemperatureF,Dew PointF,Humidity,Sea Level PressureIn,VisibilityMPH,Wind Direction,Wind SpeedMPH,Gust SpeedMPH,PrecipitationIn,Events,Conditions,WindDirDegrees,DateUTC
12:15 AM,43.5,28.8,56,29.73,10.0,ENE,4.6,-,N/A,,Clear,70,2012-12-19 06:15:00
12:35 AM,43.2,28.9,57,29.72,10.0,East,5.8,-,N/A,,Clear,100,2012-12-19 06:35:00
12:55 AM,43.5,28.9,56,29.71,10.0,East,4.6,-,N/A,,Clear,80,2012-12-19 06:55:00
1:15 AM,42.1,28.8,59,29.69,10.0,ENE,3.5,-,N/A,,Clear,70,2012-12-19 07:15:00
1:35 AM,41.2,28.6,61,29.69,10.0,Calm,Calm,-,N/A,,Clear,0,2012-12-19 07:35:00
1:55 AM,40.1,28.4,63,29.68,10.0,East,4.6,-,N/A,,Clear,90,2012-12-19 07:55:00
2:15 AM,40.1,28.2,63,29.68,10.0,Calm,Calm,-,N/A,,Clear,0,2012-12-19 08:15:00
2:35 AM,38.3,27.7,66,29.69,10.0,North,5.8,-,N/A,,Clear,350,2012-12-19 08:35:00
2:55 AM,37.6,27.7,67,29.69,10.0,North,8.1,-,N/A,,Clear,350,2012-12-19 08:55:00
3:15 AM,39.0,28.8,67,29.69,10.0,North,4.6,-,N/A,,Clear,350,2012-12-19 09:15:00
3:35 AM,40.6,29.3,64,29.69,10.0,Calm,Calm,-,N/A,,Clear,0,2012-12-19 09:35:00
3:55 AM,40.6,29.5,64,29.69,10.0,Calm,Calm,-,N/A,,Clear,0,2012-12-19 09:55:00
4:15 AM,40.8,29.8,65,29.67,10.0,Calm,Calm,-,N/A,,Clear,0,2012-12-19 10:15:00
4:35 AM,39.9,29.3,66,29.66,10.0,Calm,Calm,-,N/A,,Clear,0,2012-12-19 10:35:00
4:55 AM,38.5,28.9,69,29.65,10.0,Calm,Calm,-,N/A,,Clear,0,2012-12-19 10:55:00
5:15 AM,38.5,29.5,70,29.64,10.0,Calm,Calm,-,N/A,,Clear,0,2012-12-19 11:15:00
5:35 AM,39.6,29.8,68,29.65,10.0,Calm,Calm,-,N/A,,Clear,0,2012-12-19 11:35:00
5:55 AM,40.5,30.4,67,29.64,10.0,Calm,Calm,-,N/A,,Clear,0,2012-12-19 11:55:00
6:15 AM,40.6,31.1,69,29.64,10.0,Calm,Calm,-,N/A,,Clear,0,2012-12-19 12:15:00
6:35 AM,40.3,31.3,70,29.65,10.0,Calm,Calm,-,N/A,,Clear,0,2012-12-19 12:35:00
6:55 AM,40.8,31.3,69,29.65,10.0,SE,3.5,-,N/A,,Clear,140,2012-12-19 12:55:00
7:15 AM,41.0,31.3,68,29.65,10.0,SE,3.5,-,N/A,,Clear,140,2012-12-19 13:15:00
7:35 AM,41.0,31.3,68,29.64,10.0,SE,5.8,-,N/A,,Clear,140,2012-12-19 13:35:00
7:55 AM,41.4,31.1,67,29.64,10.0,SSE,5.8,-,N/A,,Clear,150,2012-12-19 13:55:00
8:15 AM,42.1,31.1,65,29.65,10.0,Calm,Calm,-,N/A,,Clear,0,2012-12-19 14:15:00
8:35 AM,42.8,31.1,63,29.65,10.0,Calm,Calm,-,N/A,,Clear,0,2012-12-19 14:35:00
8:55 AM,43.2,31.6,64,29.65,10.0,Calm,Calm,-,N/A,,Clear,0,2012-12-19 14:55:00
9:15 AM,44.1,32.0,63,29.64,10.0,Calm,Calm,-,N/A,,Clear,0,2012-12-19 15:15:00
9:35 AM,45.1,32.0,60,29.65,10.0,WSW,3.5,-,N/A,,Clear,250,2012-12-19 15:35:00
9:55 AM,45.9,32.0,58,29.64,10.0,South,3.5,-,N/A,,Clear,190,2012-12-19 15:55:00
10:15 AM,46.9,32.0,56,29.63,10.0,SSE,4.6,-,N/A,,Clear,160,2012-12-19 16:15:00
10:35 AM,48.7,32.9,54,29.64,10.0,South,4.6,-,N/A,,Clear,180,2012-12-19 16:35:00
10:55 AM,51.8,35.4,54,29.62,10.0,South,6.9,-,N/A,,Clear,170,2012-12-19 16:55:00
11:15 AM,54.1,39.0,57,29.62,10.0,South,8.1,-,N/A,,Clear,190,2012-12-19 17:15:00
11:35 AM,55.9,42.1,60,29.61,10.0,SSW,8.1,-,N/A,,Clear,200,2012-12-19 17:35:00
11:55 AM,57.0,43.5,61,29.59,10.0,South,9.2,-,N/A,,Clear,190,2012-12-19 17:55:00
12:15 PM,57.6,43.7,60,29.58,10.0,South,9.2,-,N/A,,Clear,190,2012-12-19 18:15:00
12:35 PM,58.5,44.1,59,29.58,10.0,SW,8.1,-,N/A,,Clear,220,2012-12-19 18:35:00
1:15 PM,58.8,44.6,59,29.56,10.0,SSW,8.1,-,N/A,,Clear,200,2012-12-19 19:15:00
1:35 PM,58.8,45.1,60,29.55,10.0,SSW,11.5,-,N/A,,Clear,200,2012-12-19 19:35:00
1:55 PM,59.5,45.7,60,29.55,10.0,SSW,10.4,-,N/A,,Clear,200,2012-12-19 19:55:00
2:15 PM,59.2,45.7,61,29.54,10.0,SSW,11.5,-,N/A,,Clear,200,2012-12-19 20:15:00
2:35 PM,59.4,45.9,61,29.53,10.0,South,12.7,-,N/A,,Clear,190,2012-12-19 20:35:00
2:55 PM,60.4,46.2,59,29.53,10.0,SSW,13.8,-,N/A,,Clear,200,2012-12-19 20:55:00
3:15 PM,61.3,46.0,57,29.53,10.0,SSW,13.8,-,N/A,,Clear,200,2012-12-19 21:15:00
3:35 PM,61.9,45.5,55,29.53,10.0,SSW,13.8,-,N/A,,Clear,200,2012-12-19 21:35:00
3:55 PM,62.6,43.7,50,29.53,10.0,SSW,16.1,-,N/A,,Clear,200,2012-12-19 21:55:00
4:15 PM,63.5,41.7,45,29.54,10.0,SSW,15.0,-,N/A,,Mostly Cloudy,200,2012-12-19 22:15:00
4:35 PM,63.9,39.7,41,29.54,10.0,SSW,13.8,-,N/A,,Overcast,200,2012-12-19 22:35:00
4:55 PM,64.2,37.8,38,29.54,10.0,SSW,12.7,-,N/A,,Overcast,200,2012-12-19 22:55:00
5:15 PM,64.6,35.2,34,29.54,10.0,SSW,11.5,-,N/A,,Overcast,200,2012-12-19 23:15:00
5:35 PM,65.1,32.9,30,29.54,10.0,SSW,16.1,-,N/A,,Mostly Cloudy,210,2012-12-19 23:35:00
5:55 PM,66.7,30.0,25,29.57,7.0,WSW,27.6,34.5,N/A,,Overcast,240,2012-12-19 23:55:00
6:35 PM,65.3,27.5,24,29.63,5.0,West,29.9,36.8,N/A,,Overcast,280,2012-12-20 00:35:00
6:55 PM,64.0,24.4,22,29.64,7.0,West,25.3,32.2,N/A,,Scattered Clouds,270,2012-12-20 00:55:00
7:15 PM,63.1,19.6,19,29.67,7.0,West,34.5,44.9,N/A,,Clear,280,2012-12-20 01:15:00
7:35 PM,58.8,20.8,23,29.72,10.0,WNW,40.3,47.2,N/A,,Clear,300,2012-12-20 01:35:00
7:55 PM,54.0,19.6,26,29.76,7.0,WNW,36.8,48.3,N/A,,Clear,300,2012-12-20 01:55:00
8:15 PM,-9999,-9999,N/A,29.78,-9999.0,WNW,40.3,-,N/A,,Unknown,300,2012-12-20 02:15:00
8:35 PM,46.8,22.5,38,29.79,10.0,NW,38.0,44.9,N/A,,Clear,310,2012-12-20 02:35:00
8:55 PM,45.0,23.2,42,29.82,7.0,NW,34.5,47.2,N/A,,Clear,310,2012-12-20 02:55:00
9:15 PM,43.5,23.7,46,29.86,10.0,NW,36.8,48.3,N/A,,Clear,310,2012-12-20 03:15:00
9:35 PM,-9999,-9999,N/A,29.86,-9999.0,NW,39.1,-,N/A,,Unknown,310,2012-12-20 03:35:00
9:55 PM,41.0,23.7,50,29.88,7.0,NW,43.7,51.8,N/A,,Clear,310,2012-12-20 03:55:00
10:15 PM,40.3,23.0,50,29.91,10.0,WNW,34.5,47.2,N/A,,Clear,300,2012-12-20 04:15:00
10:35 PM,39.7,22.8,51,29.93,10.0,NW,34.5,47.2,N/A,,Clear,310,2012-12-20 04:35:00
10:55 PM,39.2,22.5,51,29.96,10.0,NW,42.6,51.8,N/A,,Clear,320,2012-12-20 04:55:00
11:15 PM,38.8,22.1,51,29.97,10.0,NW,35.7,44.9,N/A,,Clear,310,2012-12-20 05:15:00
11:35 PM,38.5,21.9,51,29.99,10.0,NW,33.4,49.5,N/A,,Clear,320,2012-12-20 05:35:00
11:55 PM,38.1,21.6,51,30.01,10.0,NW,39.1,46.0,N/A,,Clear,320,2012-12-20 05:55:00